Location: Sternwarte ZA, Rosenfeld-Brittheim
(48.2889°N, 8.6789°E)
Time: 05:49:44
(UTC+01:00)

OTV 5 (USA 277) - Visible Passes

Search period start: 23 February 2018 00:00
Search period end: 05 March 2018 00:00
Orbit: 404 x 417 km, 43.0° (Epoch: 07 September)

Date Brightness Start Highest point End Pass type
(mag) Time Alt. Az. Time Alt. Az. Time Alt. Az.
23 Feb ? 05:52:17 11° SSW 05:54:25 19° SSE 05:56:50 10° ESE visible
24 Feb ? 05:03:42 15° SSE 05:03:42 15° SSE 05:05:31 10° ESE visible
24 Feb ? 06:37:19 10° SW 06:40:15 30° S 06:43:12 10° ESE visible
25 Feb ? 05:47:48 19° SSW 05:49:18 27° SSE 05:52:10 10° ESE visible
26 Feb ? 04:59:06 21° SE 04:59:06 21° SE 05:01:03 10° ESE visible
26 Feb ? 06:32:14 10° WSW 06:35:13 32° S 06:38:13 10° ESE visible
27 Feb ? 05:43:07 25° SW 05:44:15 32° S 05:47:15 10° ESE visible
28 Feb ? 04:54:23 24° SE 04:54:23 24° SE 04:56:15 10° ESE visible
28 Feb ? 06:27:19 10° WSW 06:30:11 27° S 06:33:03 10° SE visible
01 Mar ? 05:38:23 26° SW 05:39:14 30° S 05:42:11 10° ESE visible
02 Mar ? 04:49:40 22° SE 04:49:40 22° SE 04:51:15 10° ESE visible
02 Mar ? 06:22:37 10° WSW 06:25:05 20° SSW 06:27:32 10° SSE visible
03 Mar ? 05:33:44 23° SSW 05:34:10 24° SSW 05:36:52 10° SE visible
04 Mar ? 04:45:06 16° SE 04:45:06 16° SE 04:46:05 10° SE visible
04 Mar ? 06:18:36 10° SW 06:19:53 12° SSW 06:21:10 10° S visible
